Date String (YYYY-MM-DD hh:mm:ss) UTC,Instrument flags,Ambient pressure (hPa),Sample flow (lpm),Bypass flow (lpm),Sample temperature (°C),Ambient temperature (°C),ASC tube jacket temperature (°C),LED temperature (°C),Box temperature (°C),Sample RH (%),Span deviation,Mass concentration (μg/m³),Mass concentration (μg/m³),Mass concentration (μg/m³)
DateTimeUTC,F1_M11,P_M11,Q1_M11,Q2_M11,T1_M11,T2_M11,T3_M11,T4_M11,T5_M11,U1_M11,ZSPAN_M11,X2_M11,X0_M11,X1_M11
2022-08-04 02:00:00,,0829.0,5.01,0.00,30.9,28.6,00.0,38.8,31.9,33.5,0000.0,0007.75,0014.51,0006.72
2022-08-04 02:01:00,,0829.0,5.00,0.00,30.9,28.4,00.0,38.9,31.9,31.9,0001.0,0007.74,0014.46,0006.74
2022-08-04 02:02:00,,0829.0,5.01,0.00,30.9,27.7,00.0,38.9,31.7,31.7,0000.1,0007.75,0014.15,0006.75
2022-08-04 02:03:00,,0829.0,4.98,0.00,30.8,27.3,00.0,38.9,31.6,32.0,0000.7,0007.79,0014.04,0006.79
2022-08-04 02:04:00,,0829.1,5.01,0.00,30.7,27.2,00.0,38.9,31.5,32.6,0001.4,0007.82,0013.97,0006.81
2022-08-04 02:05:00,,0829.1,4.99,0.00,30.6,27.3,00.0,38.9,31.5,32.8,0000.1,0007.82,0013.79,0006.83
2022-08-04 02:06:00,,0829.0,5.00,0.00,30.5,27.4,00.0,38.9,31.5,32.0,0000.0,0007.80,0013.87,0006.85
2022-08-04 02:07:00,,0829.1,4.99,0.00,30.5,27.6,00.0,38.9,31.5,31.6,0000.0,0007.84,0013.49,0006.91
2022-08-04 02:08:00,,0829.2,5.00,0.00,30.4,27.8,00.0,38.9,31.6,31.4,0000.0,0007.87,0013.40,0006.95
2022-08-04 02:09:00,,0829.2,5.00,0.00,30.4,28.0,00.0,38.9,31.7,31.3,0000.2,0007.91,0013.08,0006.98
2022-08-04 02:10:00,,0829.2,5.00,0.00,30.4,28.2,00.0,38.9,31.8,31.0,0000.3,0007.97,0013.49,0007.00
2022-08-04 02:11:00,,0829.3,5.00,0.00,30.4,28.3,00.0,38.9,31.8,31.1,0000.2,0007.97,0013.35,0007.03
2022-08-04 02:12:00,,0829.3,5.00,0.00,30.5,28.5,00.0,39.0,31.9,32.4,0000.0,0007.97,0013.78,0007.03
2022-08-04 02:13:00,,0829.3,5.00,0.00,30.5,28.5,00.0,39.0,31.8,33.2,0000.8,0007.94,0014.64,0007.02
2022-08-04 02:14:00,,0829.3,5.00,0.00,30.4,27.9,00.0,38.9,31.7,33.8,0000.2,0007.94,0014.93,0007.01
2022-08-04 02:15:00,,0829.3,4.99,0.00,30.4,27.3,00.0,38.9,31.6,34.3,0000.4,0007.91,0015.24,0007.00
2022-08-04 02:16:00,,0829.2,5.00,0.00,30.3,27.1,00.0,38.9,31.5,33.7,0001.1,0007.93,0015.44,0006.99
2022-08-04 02:17:00,,0829.3,5.00,0.00,30.2,27.2,00.0,38.8,31.4,33.5,0001.3,0007.97,0015.68,0007.00
2022-08-04 02:18:00,,0829.2,4.99,0.00,30.1,27.4,00.0,38.8,31.5,34.0,0001.0,0007.96,0015.68,0006.99
2022-08-04 02:19:00,,0829.3,5.00,0.00,30.1,27.5,00.0,38.8,31.5,34.3,0000.4,0007.94,0015.59,0006.99
2022-08-04 02:20:00,,0829.2,5.01,0.00,30.1,27.7,00.0,38.8,31.5,34.5,0000.8,0007.92,0015.50,0006.99
2022-08-04 02:21:00,,0829.2,5.00,0.00,30.1,27.9,00.0,38.8,31.6,34.2,0001.3,0007.87,0016.54,0007.00
2022-08-04 02:22:00,,0829.2,5.00,0.00,30.1,28.1,00.0,38.7,31.6,33.8,0001.7,0007.91,0016.39,0007.01
2022-08-04 02:23:00,,0829.2,5.00,0.00,30.1,28.2,00.0,38.8,31.7,33.3,0001.6,0007.94,0016.33,0007.02
2022-08-04 02:24:00,,0829.3,5.01,0.00,30.1,28.4,00.0,38.8,31.8,33.1,0000.9,0007.98,0015.52,0007.04
2022-08-04 02:25:00,,0829.2,5.01,0.00,30.1,28.5,00.0,38.8,31.8,31.6,0000.7,0007.97,0015.57,0007.06
2022-08-04 02:26:00,,0829.2,5.00,0.00,30.1,28.4,00.0,38.8,31.7,31.3,0000.7,0008.01,0015.38,0007.09
2022-08-04 02:27:00,,0829.2,5.01,0.00,30.1,27.7,00.0,38.7,31.5,31.6,0000.7,0008.03,0015.09,0007.13
2022-08-04 02:28:00,,0829.3,5.00,0.00,30.0,27.2,00.0,38.7,31.4,31.5,0000.5,0008.03,0014.89,0007.14
2022-08-04 02:29:00,,0829.2,4.99,0.00,29.9,27.1,00.0,38.7,31.4,31.5,0000.6,0008.06,0015.05,0007.15
2022-08-04 02:30:00,,0829.3,5.01,0.00,29.8,27.2,00.0,38.6,31.3,31.7,0000.2,0008.11,0015.40,0007.16
2022-08-04 02:31:00,,0829.3,4.99,0.00,29.8,27.3,00.0,38.6,31.3,31.7,0000.4,0008.16,0016.68,0007.17
2022-08-04 02:32:00,,0829.2,4.99,0.00,29.8,27.5,00.0,38.6,31.4,31.8,0000.4,0008.20,0016.22,0007.18
2022-08-04 02:33:00,,0829.2,5.01,0.00,29.8,27.7,00.0,38.6,31.4,31.6,0000.0,0008.22,0016.98,0007.18
2022-08-04 02:34:00,,0829.2,4.99,0.00,29.8,27.9,00.0,38.5,31.5,30.5,-000.0,0008.24,0017.35,0007.19
2022-08-04 02:35:00,,0829.4,4.99,0.00,29.8,28.1,00.0,38.6,31.5,30.0,0000.4,0008.21,0017.37,0007.19
2022-08-04 02:36:00,,0829.3,5.01,0.00,29.8,28.2,00.0,38.6,31.6,31.2,0000.6,0008.24,0017.34,0007.19
2022-08-04 02:37:00,,0829.2,5.00,0.00,29.9,28.4,00.0,38.6,31.7,30.8,0000.3,0008.29,0017.48,0007.18
2022-08-04 02:38:00,,0829.2,4.99,0.00,29.9,28.5,00.0,38.6,31.7,30.1,0000.1,0008.32,0017.55,0007.17
2022-08-04 02:39:00,,0829.3,5.00,0.00,29.9,28.5,00.0,38.6,31.7,30.3,0000.2,0008.31,0017.37,0007.18
2022-08-04 02:40:00,,0829.2,5.00,0.00,29.9,27.9,00.0,38.6,31.6,30.2,0000.0,0008.30,0016.84,0007.19
2022-08-04 02:41:00,,0829.2,5.02,0.00,29.8,27.4,00.0,38.5,31.4,29.9,0000.2,0008.26,0017.27,0007.20
2022-08-04 02:42:00,,0829.3,4.99,0.00,29.8,27.1,00.0,38.5,31.3,30.1,0000.6,0008.23,0017.09,0007.19
2022-08-04 02:43:00,,0829.2,5.00,0.00,29.7,27.1,00.0,38.5,31.2,30.6,0000.7,0008.21,0016.42,0007.18
2022-08-04 02:44:00,,0829.3,5.01,0.00,29.6,27.3,00.0,38.4,31.2,30.9,0000.8,0008.20,0015.37,0007.18
2022-08-04 02:45:00,,0829.3,5.00,0.00,29.6,27.5,00.0,38.4,31.3,31.0,0001.0,0008.20,0015.38,0007.18
2022-08-04 02:46:00,,0829.3,5.00,0.00,29.6,27.6,00.0,38.4,31.3,31.3,0001.2,0008.28,0016.11,0007.20
2022-08-04 02:47:00,,0829.2,5.00,0.00,29.6,27.8,00.0,38.4,31.4,31.5,0001.3,0008.29,0016.68,0007.22
2022-08-04 02:48:00,,0829.3,5.00,0.00,29.6,28.0,00.0,38.4,31.4,31.5,0001.4,0008.28,0016.67,0007.25
2022-08-04 02:49:00,,0829.2,5.00,0.00,29.7,28.2,00.0,38.4,31.5,31.4,0001.5,0008.33,0016.74,0007.27
2022-08-04 02:50:00,,0829.2,5.00,0.00,29.7,28.3,00.0,38.4,31.5,31.3,0001.8,0008.34,0016.85,0007.29
2022-08-04 02:51:00,,0829.2,5.00,0.00,29.7,28.4,00.0,38.4,31.6,31.5,0002.1,0008.38,0017.18,0007.30
2022-08-04 02:52:00,,0829.2,5.00,0.00,29.7,28.6,00.0,38.5,31.7,31.6,0002.3,0008.42,0016.68,0007.32
2022-08-04 02:53:00,,0829.2,5.00,0.00,29.8,28.5,00.0,38.5,31.6,31.6,0002.4,0008.52,0016.85,0007.36
2022-08-04 02:54:00,,0829.2,4.99,0.00,29.8,27.9,00.0,38.4,31.5,31.8,0002.3,0008.57,0017.22,0007.40
2022-08-04 02:55:00,,0829.2,5.02,0.00,29.7,27.2,00.0,38.4,31.3,32.0,0001.8,0008.62,0017.43,0007.44
2022-08-04 02:56:00,,0829.2,5.00,0.00,29.6,27.0,00.0,38.4,31.3,32.1,0001.7,0008.62,0017.01,0007.47
2022-08-04 02:57:00,,0829.2,4.99,0.00,29.5,27.1,00.0,38.3,31.2,32.3,0001.3,0008.62,0016.89,0007.50
2022-08-04 02:58:00,,0829.2,5.00,0.00,29.5,27.2,00.0,38.3,31.2,32.3,0001.2,0008.63,0016.32,0007.51
2022-08-04 02:59:00,,0829.2,5.00,0.00,29.5,27.4,00.0,38.3,31.2,32.2,0001.2,0008.63,0016.15,0007.54
